WP3OF-1 Weather Reports


time (UTC)temp
C
wind
direction
speed
KPH
gust
KPH
rain 1hr
cm
rain 24hr
cm
rain mn
cm
humidity
%
barometer
mb
20260507195847 27 43 17.7 25.7 0.00 0.00 0.00 77 1015.8
20260507195344 27 73 20.9 24.1 0.00 0.00 0.00 76 1016.1
20260507194841 27 51 17.7 25.7 0.00 0.00 0.00 76 1015.9
20260507194337 27 92 17.7 25.7 0.00 0.00 0.00 75 1016.1
20260507193834 27 63 17.7 24.1 0.00 0.00 0.00 77 1016.1
20260507193331 27 74 14.5 27.4 0.00 0.00 0.00 77 1016.1
20260507192827 27 63 17.7 24.1 0.00 0.00 0.00 77 1016.2
20260507192324 27 90 16.1 22.5 0.00 0.00 0.00 77 1016.3
20260507191820 27 112 11.3 20.9 0.00 0.00 0.00 78 1016.4
20260507191316 27 95 16.1 22.5 0.00 0.00 0.00 77 1016.4
20260507190814 27 74 12.9 24.1 0.00 0.00 0.00 77 1016.4
20260507190312 27 78 14.5 20.9 0.00 0.00 0.00 77 1016.4
20260507185810 27 55 14.5 22.5 0.00 0.00 0.00 77 1016.5
20260507185307 27 105 16.1 20.9 0.00 0.00 0.00 77 1016.4
20260507184804 28 94 20.9 24.1 0.00 0.00 0.00 74 1016.6
20260507184302 27 61 11.3 17.7 0.00 0.00 0.00 76 1016.5
20260507183758 27 128 14.5 17.7 0.00 0.00 0.00 76 1016.4
20260507183256 28 126 12.9 20.9 0.00 0.00 0.00 75 1016.7
20260507182753 28 92 16.1 20.9 0.00 0.00 0.00 75 1016.6
20260507182247 28 84 12.9 16.1 0.00 0.00 0.00 75 1016.7
20260507181745 27 76 9.7 20.9 0.00 0.00 0.00 76 1017.0
20260507181236 28 107 14.5 17.7 0.00 0.00 0.00 76 1016.7
20260507180732 27 87 16.1 24.1 0.00 0.00 0.00 77 1017.1
20260507180229 27 57 17.7 17.7 0.00 0.00 0.00 78 1017.0
20260507175725 27 78 9.7 27.4 0.00 0.00 0.00 77 1016.9
20260507175223 27 60 12.9 20.9 0.00 0.00 0.00 78 1017.0
20260507174720 27 90 12.9 27.4 0.00 0.00 0.00 77 1017.3
20260507174217 27 66 14.5 22.5 0.00 0.00 0.00 78 1017.2
20260507173715 27 78 16.1 22.5 0.00 0.00 0.00 76 1017.3
20260507173211 27 58 14.5 22.5 0.00 0.00 0.00 76 1017.1
20260507172708 27 81 16.1 20.9 0.00 0.00 0.00 77 1017.3
20260507172204 27 88 22.5 25.7 0.00 0.00 0.00 75 1017.4
20260507171659 27 53 17.7 17.7 0.00 0.00 0.00 78 1017.5
20260507171156 -17 0.0 0.0 0.00 0.00 0.00 1017.4
20260507170653 27 74 16.1 20.9 0.00 0.00 0.00 77 1017.6
20260507170150 27 74 16.1 20.9 0.00 0.00 0.00 77 1017.5
20260507165645 27 104 11.3 14.5 0.00 0.00 0.00 77 1017.9
20260507165142 27 82 14.5 25.7 0.00 0.00 0.00 76 1017.9
20260507164638 28 89 14.5 24.1 0.00 0.00 0.00 75 1017.9
20260507164136 28 115 12.9 20.9 0.00 0.00 0.00 75 1018.1
20260507163633 28 111 17.7 22.5 0.00 0.00 0.00 75 1017.9
20260507163130 28 99 20.9 25.7 0.00 0.00 0.00 76 1018.0
20260507162626 28 98 17.7 27.4 0.00 0.00 0.00 74 1018.2
20260507162122 28 128 17.7 25.7 0.00 0.00 0.00 73 1018.2
20260507161618 27 88 12.9 22.5 0.00 0.00 0.00 73 1018.1
20260507161115 28 95 16.1 27.4 0.00 0.00 0.00 73 1018.1
20260507160612 28 107 16.1 17.7 0.00 0.00 0.00 74 1018.1
20260507160109 27 89 12.9 27.4 0.00 0.00 0.00 75 1018.1
20260507155604 27 97 12.9 16.1 0.00 0.00 0.00 72 1018.2
20260507155101 27 114 19.3 25.7 0.00 0.00 0.00 77 1018.2
20260507154558 27 81 25.7 30.6 0.00 0.00 0.00 76 1018.2
20260507154055 27 140 17.7 24.1 0.00 0.00 0.00 77 1018.4
20260507153552 27 106 25.7 29.0 0.00 0.00 0.00 72 1018.6
20260507153048 27 128 19.3 24.1 0.00 0.00 0.00 76 1018.4
20260507152544 27 131 27.4 30.6 0.00 0.00 0.00 75 1018.6
20260507152041 27 102 16.1 30.6 0.00 0.00 0.00 75 1018.4
20260507151537 27 110 20.9 33.8 0.00 0.00 0.00 76 1018.7
20260507151034 27 97 22.5 27.4 0.00 0.00 0.00 74 1018.7
20260507150531 27 94 14.5 25.7 0.00 0.00 0.00 73 1018.6
20260507150028 27 118 16.1 27.4 0.00 0.00 0.00 75 1018.4
20260507145527 27 132 22.5 30.6 0.00 0.00 0.00 76 1018.6
20260507145026 27 90 16.1 27.4 0.00 0.00 0.00 75 1018.6
20260507144522 27 116 14.5 16.1 0.00 0.00 0.00 73 1018.6
20260507144020 27 116 14.5 16.1 0.00 0.00 0.00 73 1018.5
20260507143517 27 93 17.7 24.1 0.00 0.00 0.00 77 1018.8
20260507143014 27 117 14.5 20.9 0.00 0.00 0.00 77 1018.8
20260507142509 27 116 19.3 25.7 0.00 0.00 0.00 78 1018.7
20260507142007 27 97 14.5 22.5 0.00 0.00 0.00 75 1018.7
20260507141502 27 125 17.7 30.6 0.00 0.00 0.00 77 1018.6
20260507140959 27 134 17.7 22.5 0.00 0.00 0.00 77 1019.0
20260507140456 27 123 17.7 22.5 0.00 0.00 0.00 78 1018.7
20260507135953 27 96 19.3 25.7 0.00 0.00 0.00 77 1019.0
20260507135450 27 69 17.7 27.4 0.00 0.00 0.00 77 1018.9
20260507134948 29 106 16.1 24.1 0.00 0.00 0.00 73 1019.0
20260507134444 28 131 14.5 22.5 0.00 0.00 0.00 73 1018.8
20260507133940 28 112 20.9 29.0 0.00 0.00 0.00 70 1018.7
20260507133436 28 107 22.5 33.8 0.00 0.00 0.00 73 1018.9
20260507132935 28 108 20.9 25.7 0.00 0.00 0.00 71 1018.8
20260507132431 27 95 14.5 20.9 0.00 0.00 0.00 76 1018.8
20260507131927 27 120 14.5 22.5 0.00 0.00 0.00 75 1018.6
20260507131424 27 118 20.9 25.7 0.00 0.00 0.00 73 1018.6
20260507130921 28 73 9.7 11.3 0.00 0.00 0.00 75 1018.5
20260507130418 27 107 17.7 22.5 0.00 0.00 0.00 75 1018.8
20260507125917 27 117 14.5 29.0 0.00 0.00 0.00 76 1018.7
20260507125415 27 114 25.7 30.6 0.00 0.00 0.00 76 1018.4
20260507124912 27 121 17.7 22.5 0.00 0.00 0.00 76 1018.3
20260507124408 27 89 24.1 27.4 0.00 0.00 0.00 78 1018.2
20260507123906 27 107 25.7 27.4 0.00 0.00 0.00 79 1018.2
20260507123403 27 106 24.1 29.0 0.00 0.00 0.00 78 1018.0
20260507122900 27 90 16.1 22.5 0.00 0.00 0.00 79 1018.0
20260507122355 27 110 16.1 22.5 0.00 0.00 0.00 79 1018.1
20260507121851 26 121 19.3 25.7 0.00 0.00 0.00 79 1018.0
20260507121347 26 99 24.1 30.6 0.00 0.00 0.00 80 1017.8
20260507120844 26 102 24.1 30.6 0.00 0.00 0.00 81 1017.7
20260507120340 26 103 25.7 30.6 0.00 0.00 0.00 82 1017.9
20260507115836 26 81 11.3 17.7 0.00 0.00 0.00 83 1017.9
20260507115332 26 70 17.7 29.0 0.00 0.00 0.00 83 1018.1
20260507114828 26 103 14.5 20.9 0.00 0.00 0.00 84 1017.9
20260507114325 26 90 12.9 22.5 0.00 0.00 0.00 84 1017.9
20260507113823 26 140 17.7 22.5 0.00 0.00 0.00 84 1017.6
20260507113319 26 110 24.1 27.4 0.00 0.00 0.00 83 1017.6
20260507112817 26 102 19.3 24.1 0.00 0.00 0.00 83 1017.5
20260507112314 26 107 19.3 24.1 0.00 0.00 0.00 83 1017.2
20260507111812 26 104 19.3 22.5 0.00 0.00 0.00 83 1017.4
20260507111308 26 104 19.3 22.5 0.00 0.00 0.00 83 1017.5
20260507110804 26 103 12.9 20.9 0.00 0.00 0.00 84 1017.2
20260507110301 26 109 17.7 20.9 0.00 0.00 0.00 84 1017.5
20260507105758 26 93 16.1 16.1 0.00 0.00 0.00 84 1017.5
20260507105254 26 96 19.3 22.5 0.00 0.00 0.00 84 1017.3
20260507104751 25 96 16.1 22.5 0.00 0.00 0.00 85 1017.3
20260507104248 25 85 17.7 24.1 0.00 0.00 0.00 85 1017.5
20260507103744 25 105 16.1 20.9 0.00 0.00 0.00 86 1017.3
20260507103240 25 101 16.1 22.5 0.00 0.00 0.00 86 1017.2
20260507102737 25 113 19.3 24.1 0.00 0.00 0.00 87 1017.2
20260507102233 25 102 17.7 24.1 0.00 0.00 0.00 87 1017.0
20260507101730 25 86 14.5 27.4 0.00 0.00 0.00 87 1017.0
20260507101225 25 98 17.7 24.1 0.00 0.00 0.00 88 1017.0
20260507100722 25 85 19.3 24.1 0.00 0.00 0.00 88 1016.8
20260507100221 25 103 22.5 25.7 0.00 0.00 0.00 88 1017.1
20260507095718 25 110 14.5 22.5 0.00 0.00 0.00 89 1017.1
20260507095214 25 102 16.1 20.9 0.00 0.00 0.00 89 1017.1
20260507094711 24 90 19.3 24.1 0.00 0.00 0.00 89 1016.9
20260507094208 24 86 20.9 22.5 0.00 0.00 0.00 89 1017.1
20260507093705 24 100 20.9 22.5 0.00 0.00 0.00 89 1017.0
20260507093204 24 88 17.7 20.9 0.00 0.00 0.00 90 1017.0
20260507092701 24 105 14.5 24.1 0.00 0.00 0.00 89 1017.2
20260507092157 24 76 14.5 17.7 0.00 0.00 0.00 89 1016.9
20260507091654 24 103 17.7 22.5 0.00 0.00 0.00 89 1017.0
20260507091150 24 99 17.7 22.5 0.00 0.00 0.00 89 1017.1
20260507090645 24 101 14.5 20.9 0.00 0.00 0.00 89 1016.9
20260507090143 24 103 17.7 20.9 0.00 0.00 0.00 89 1016.9
20260507085640 24 87 19.3 20.9 0.00 0.00 0.00 90 1016.9
20260507085136 24 76 20.9 22.5 0.00 0.00 0.00 90 1017.0
20260507084633 24 90 19.3 24.1 0.00 0.00 0.00 90 1016.9
20260507084130 24 96 14.5 22.5 0.00 0.00 0.00 89 1017.0
20260507083627 24 92 19.3 22.5 0.00 0.00 0.00 90 1016.8
20260507083124 24 91 12.9 17.7 0.00 0.00 0.00 89 1016.9
20260507082619 24 92 11.3 16.1 0.00 0.00 0.00 89 1017.0
20260507082116 24 110 11.3 16.1 0.00 0.00 0.00 89 1017.0
20260507081613 24 101 16.1 17.7 0.00 0.00 0.00 89 1016.9
20260507081109 25 99 14.5 20.9 0.00 0.00 0.00 89 1016.9
20260507080606 25 92 16.1 20.9 0.00 0.00 0.00 88 1016.9
20260507075557 25 60 14.5 20.9 0.00 0.00 0.00 87 1016.8
20260507075054 25 87 14.5 20.9 0.00 0.00 0.00 87 1016.8
20260507074551 25 98 17.7 22.5 0.00 0.00 0.00 86 1016.8
20260507074049 24 102 19.3 24.1 0.00 0.00 0.00 86 1017.1
20260507073544 24 100 14.5 20.9 0.00 0.00 0.00 86 1017.0
20260507073041 24 97 16.1 24.1 0.00 0.00 0.00 87 1017.0
20260507072539 24 88 16.1 22.5 0.00 0.00 0.00 87 1016.9
20260507072036 24 81 14.5 20.9 0.00 0.00 0.00 88 1017.0
20260507071533 24 83 14.5 20.9 0.00 0.00 0.00 89 1016.9
20260507071025 24 92 19.3 22.5 0.00 0.00 0.00 89 1017.0
20260507070521 24 93 19.3 24.1 0.00 0.00 0.00 88 1016.8
20260507070018 24 87 17.7 22.5 0.00 0.00 0.00 88 1017.3
20260507065514 24 95 20.9 24.1 0.00 0.00 0.00 88 1016.9
20260507065012 24 100 14.5 20.9 0.00 0.00 0.00 89 1017.0
20260507064510 24 105 19.3 22.5 0.00 0.00 0.00 89 1017.2
20260507064008 25 106 16.1 25.7 0.00 0.00 0.00 89 1017.1
20260507063505 25 102 16.1 27.4 0.00 0.00 0.00 90 1017.4
20260507063002 25 85 16.1 24.1 0.00 0.00 0.00 90 1017.4
20260507062458 25 93 16.1 17.7 0.00 0.00 0.00 90 1017.3
20260507061956 25 76 16.1 22.5 0.00 0.00 0.00 90 1017.4
20260507061454 25 105 14.5 17.7 0.00 0.00 0.00 90 1017.5
20260507060952 25 96 14.5 20.9 0.00 0.00 0.00 89 1017.6
20260507060449 25 96 11.3 16.1 0.00 0.00 0.00 89 1017.9
20260507055945 25 94 16.1 20.9 0.00 0.00 0.00 89 1017.6
20260507055440 25 101 19.3 20.9 0.00 0.00 0.00 89 1017.9
20260507054938 25 102 16.1 20.9 0.00 0.00 0.00 88 1017.9
20260507054434 25 86 16.1 22.5 0.00 0.00 0.00 88 1017.9
20260507053931 25 97 14.5 20.9 0.00 0.00 0.00 89 1017.8
20260507053428 25 96 14.5 14.5 0.00 0.00 0.00 89 1018.1
20260507052926 25 86 12.9 14.5 0.00 0.00 0.00 88 1018.1
20260507052424 25 100 16.1 16.1 0.00 0.00 0.00 88 1018.1
20260507051920 25 107 11.3 16.1 0.00 0.00 0.00 88 1018.1
20260507051418 25 88 12.9 17.7 0.00 0.00 0.00 88 1018.4
20260507050915 25 95 11.3 16.1 0.00 0.00 0.00 88 1018.6
20260507050411 25 91 16.1 20.9 0.00 0.00 0.00 88 1018.4
20260507045908 25 90 12.9 16.1 0.00 0.00 0.00 88 1018.4
20260507045405 25 88 17.7 17.7 0.00 0.00 0.00 88 1018.7
20260507044902 25 101 14.5 16.1 0.00 0.00 0.00 88 1018.7
20260507044358 25 86 12.9 14.5 0.00 0.00 0.00 88 1018.8
20260507043854 25 74 11.3 16.1 0.00 0.00 0.00 87 1019.0
20260507043351 25 56 9.7 17.7 0.00 0.00 0.00 87 1018.9
20260507042847 25 76 17.7 22.5 0.00 0.00 0.00 87 1019.2
20260507042344 25 93 14.5 20.9 0.00 0.00 0.00 87 1019.1
20260507041840 25 96 16.1 17.7 0.00 0.00 0.00 87 1019.0
20260507041337 25 80 12.9 17.7 0.00 0.00 0.00 87 1019.1
20260507040834 25 95 16.1 20.9 0.00 0.00 0.00 87 1019.0
20260507040330 25 70 16.1 22.5 0.00 0.00 0.00 87 1019.0
20260507035826 25 105 12.9 20.9 0.00 0.00 0.00 87 1019.1
20260507035322 25 92 14.5 17.7 0.00 0.00 0.00 87 1019.2
20260507034820 25 84 14.5 22.5 0.00 0.00 0.00 87 1019.4
20260507034316 25 114 14.5 22.5 0.00 0.00 0.00 87 1019.6
20260507033815 25 106 16.1 22.5 0.00 0.00 0.00 87 1019.4
20260507033312 25 100 12.9 17.7 0.00 0.00 0.00 87 1019.6
20260507032809 25 115 16.1 17.7 0.00 0.00 0.00 87 1019.5
20260507032306 25 91 12.9 20.9 0.00 0.00 0.00 86 1019.4
20260507031801 25 85 11.3 17.7 0.00 0.00 0.00 86 1019.5
20260507031258 25 74 14.5 20.9 0.00 0.00 0.00 86 1019.3
20260507030755 25 95 14.5 17.7 0.00 0.00 0.00 86 1019.4
20260507030253 25 101 19.3 27.4 0.00 0.00 0.00 85 1019.5
20260507025750 25 78 14.5 20.9 0.00 0.00 0.00 85 1019.4
20260507025246 25 97 14.5 17.7 0.00 0.00 0.00 85 1019.3
20260507024745 25 94 19.3 24.1 0.00 0.00 0.00 85 1019.5
20260507024242 25 104 16.1 20.9 0.00 0.00 0.00 85 1019.3
20260507023737 25 82 17.7 22.5 0.00 0.00 0.00 85 1019.5
20260507023234 25 107 17.7 24.1 0.00 0.00 0.00 85 1019.5
20260507022732 25 108 17.7 20.9 0.00 0.00 0.00 85 1019.6
20260507022227 25 80 16.1 17.7 0.00 0.00 0.00 86 1019.3
20260507021724 25 87 14.5 17.7 0.00 0.00 0.00 86 1019.5
20260507021219 25 81 12.9 16.1 0.00 0.00 0.00 86 1019.6
20260507020718 25 86 12.9 17.7 0.00 0.00 0.00 86 1019.4
20260507020214 25 85 16.1 20.9 0.00 0.00 0.00 86 1019.5
20260507015712 25 81 12.9 17.7 0.00 0.00 0.00 86 1019.4
20260507015209 25 99 16.1 16.1 0.00 0.00 0.00 86 1019.3
20260507014705 25 68 14.5 16.1 0.00 0.00 0.00 86 1019.4
20260507014201 25 97 16.1 17.7 0.00 0.00 0.00 85 1019.2
20260507013659 25 75 16.1 20.9 0.00 0.00 0.00 85 1019.3
20260507013156 25 94 17.7 24.1 0.00 0.00 0.00 85 1019.2
20260507012653 25 94 19.3 24.1 0.00 0.00 0.00 85 1019.1
20260507012149 25 110 19.3 20.9 0.00 0.00 0.00 85 1019.2
20260507011647 25 98 17.7 22.5 0.00 0.00 0.00 85 1019.0
20260507011143 25 117 14.5 22.5 0.00 0.00 0.00 85 1018.9
20260507010638 25 94 17.7 20.9 0.00 0.00 0.00 86 1019.0
20260507010134 25 85 14.5 20.9 0.00 0.00 0.00 85 1019.0
20260507005631 25 102 14.5 20.9 0.00 0.00 0.00 85 1019.0
20260507005122 25 97 14.5 20.9 0.00 0.00 0.00 85 1018.9
20260507004619 25 101 16.1 24.1 0.00 0.00 0.00 85 1018.8
20260507004117 25 101 17.7 24.1 0.00 0.00 0.00 85 1018.9
20260507003612 25 91 16.1 20.9 0.00 0.00 0.00 85 1018.7
20260507003107 25 96 16.1 24.1 0.00 0.00 0.00 85 1018.7
20260507002604 25 107 16.1 20.9 0.00 0.00 0.00 85 1018.5
20260507002100 25 91 17.7 20.9 0.00 0.00 0.00 86 1018.6
20260507001557 25 92 14.5 24.1 0.00 0.00 0.00 86 1018.4
20260507001054 25 95 19.3 24.1 0.00 0.00 0.00 86 1018.4
20260507000550 25 87 19.3 24.1 0.00 0.00 0.00 86 1018.3
20260507000046 25 93 19.3 22.5 0.00 0.00 0.00 86 1018.3
20260506235544 25 88 12.9 17.7 0.00 0.00 0.00 86 1018.3
20260506235039 25 87 17.7 22.5 0.00 0.00 0.00 86 1018.2
20260506234536 25 89 17.7 24.1 0.00 0.00 0.00 86 1018.1
20260506234028 25 96 16.1 22.5 0.00 0.00 0.00 86 1018.0
20260506233524 25 98 17.7 22.5 0.00 0.00 0.00 86 1018.0
20260506233022 25 88 16.1 17.7 0.00 0.00 0.00 86 1017.9
20260506232517 25 97 14.5 24.1 0.00 0.00 0.00 86 1017.9
20260506232013 25 61 11.3 17.7 0.00 0.00 0.00 86 1017.9
20260506231511 25 97 16.1 20.9 0.00 0.00 0.00 86 1017.7
20260506231008 25 109 12.9 17.7 0.00 0.00 0.00 85 1017.8
20260506230504 25 85 19.3 20.9 0.00 0.00 0.00 85 1017.6
20260506225956 26 97 14.5 24.1 0.00 0.00 0.00 85 1017.6
20260506225453 26 95 12.9 17.7 0.00 0.00 0.00 85 1017.6
20260506224949 26 102 11.3 14.5 0.00 0.00 0.00 85 1017.7
20260506224446 26 101 9.7 12.9 0.00 0.00 0.00 84 1017.5
20260506223943 26 126 16.1 20.9 0.00 0.00 0.00 84 1017.5
20260506223439 26 133 14.5 16.1 0.00 0.00 0.00 84 1017.6
20260506222936 26 89 14.5 16.1 0.00 0.00 0.00 84 1017.3
20260506222433 26 142 9.7 12.9 0.00 0.00 0.00 83 1017.4
20260506221929 26 122 11.3 12.9 0.00 0.00 0.00 83 1017.3
20260506221426 26 135 14.5 20.9 0.00 0.00 0.00 83 1017.1
20260506220925 -17 0.0 0.0 0.00 0.00 0.00 1017.4
20260506220420 -17 0.0 0.0 0.00 0.00 0.00 1017.3
20260506215916 -17 0.0 0.0 0.00 0.00 0.00 1017.3
20260506215412 -17 0.0 0.0 0.00 0.00 0.00 1017.3
20260506214908 -17 0.0 0.0 0.00 0.00 0.00 1017.1
20260506214406 26 71 17.7 22.5 0.00 0.00 0.00 81 1017.3
20260506213903 26 71 17.7 24.1 0.00 0.00 0.00 81 1017.1
20260506213401 27 99 17.7 24.1 0.00 0.00 0.00 81 1017.1
20260506212858 27 87 14.5 16.1 0.00 0.00 0.00 80 1017.0
20260506212353 27 87 14.5 16.1 0.00 0.00 0.00 80 1016.9
20260506211848 27 122 22.5 30.6 0.00 0.00 0.00 80 1016.7
20260506211345 27 92 17.7 24.1 0.00 0.00 0.00 79 1016.9
20260506210842 27 138 16.1 17.7 0.00 0.00 0.00 78 1016.9
20260506210339 27 131 11.3 16.1 0.00 0.00 0.00 78 1016.9
20260506205836 27 91 16.1 25.7 0.00 0.00 0.00 79 1017.0
20260506205331 27 135 11.3 24.1 0.00 0.00 0.00 78 1016.7
20260506204823 28 105 11.3 24.1 0.00 0.00 0.00 78 1016.8
20260506204320 27 113 19.3 25.7 0.00 0.00 0.00 78 1016.8
20260506203818 27 135 14.5 22.5 0.00 0.00 0.00 78 1016.9
20260506203315 27 130 20.9 22.5 0.00 0.00 0.00 77 1016.7
20260506202812 27 104 16.1 20.9 0.00 0.00 0.00 78 1017.0
20260506202309 28 113 19.3 24.1 0.00 0.00 0.00 75 1016.6
20260506201805 27 95 19.3 25.7 0.00 0.00 0.00 77 1016.8
20260506201303 28 106 16.1 20.9 0.00 0.00 0.00 75 1016.8
20260506200800 28 93 8.0 20.9 0.00 0.00 0.00 76 1016.7
20260506200255 28 102 20.9 25.7 0.00 0.00 0.00 74 1017.0